TimeEDT,TemperatureF,Dew PointF,Humidity,Sea Level PressureIn,VisibilityMPH,Wind Direction,Wind SpeedMPH,Gust SpeedMPH,PrecipitationIn,Events,Conditions,WindDirDegrees,DateUTC
12:23 AM,73.4,73.4,100,30.31,0.5,Calm,Calm,-,N/A,Fog,Fog,0,2013-07-17 04:23:00
12:34 AM,73.4,73.4,100,30.31,0.2,Calm,Calm,-,N/A,Fog,Fog,0,2013-07-17 04:34:00
12:56 AM,72.9,72.9,100,30.32,1.2,Calm,Calm,-,N/A,,Clear,0,2013-07-17 04:56:00
12:58 AM,73.4,73.4,100,30.30,2.5,Calm,Calm,-,N/A,,Clear,0,2013-07-17 04:58:00
1:05 AM,71.6,71.6,100,30.30,3.0,Calm,Calm,-,N/A,,Clear,0,2013-07-17 05:05:00
1:12 AM,71.6,71.6,100,30.30,1.5,Calm,Calm,-,N/A,,Clear,0,2013-07-17 05:12:00
1:14 AM,73.4,73.4,100,30.31,0.5,Calm,Calm,-,N/A,Fog,Fog,0,2013-07-17 05:14:00
1:22 AM,73.4,73.4,100,30.30,0.2,Calm,Calm,-,N/A,Fog,Fog,0,2013-07-17 05:22:00
1:46 AM,71.6,71.6,100,30.30,0.2,Calm,Calm,-,N/A,Fog,Fog,0,2013-07-17 05:46:00
1:56 AM,71.6,71.6,100,30.30,0.2,Calm,Calm,-,N/A,Fog,Fog,0,2013-07-17 05:56:00
2:11 AM,71.6,71.6,100,30.30,0.2,Calm,Calm,-,N/A,Fog,Fog,0,2013-07-17 06:11:00
2:28 AM,71.6,71.6,100,30.30,0.2,Calm,Calm,-,N/A,Fog,Fog,0,2013-07-17 06:28:00
2:56 AM,72.9,72.9,100,30.32,0.2,Calm,Calm,-,N/A,Fog,Fog,0,2013-07-17 06:56:00
3:08 AM,73.4,73.4,100,30.29,0.2,Calm,Calm,-,N/A,Fog,Fog,0,2013-07-17 07:08:00
3:56 AM,72.0,72.0,100,30.32,0.2,Calm,Calm,-,N/A,Fog,Fog,0,2013-07-17 07:56:00
4:56 AM,71.6,71.6,100,30.30,0.2,Calm,Calm,-,N/A,Fog,Fog,0,2013-07-17 08:56:00
5:48 AM,71.6,71.6,100,30.31,0.2,Calm,Calm,-,N/A,Fog,Fog,0,2013-07-17 09:48:00
5:56 AM,70.9,70.9,100,30.33,0.2,Calm,Calm,-,N/A,Fog,Fog,0,2013-07-17 09:56:00
6:56 AM,72.0,72.0,100,30.35,0.2,Calm,Calm,-,N/A,Fog,Fog,0,2013-07-17 10:56:00
7:25 AM,71.6,71.6,100,30.32,0.2,Calm,Calm,-,N/A,Fog,Fog,0,2013-07-17 11:25:00
7:45 AM,73.4,73.4,100,30.32,0.2,Calm,Calm,-,N/A,Fog,Fog,0,2013-07-17 11:45:00
7:56 AM,73.4,73.4,100,30.32,0.2,Calm,Calm,-,N/A,Fog,Fog,0,2013-07-17 11:56:00
8:27 AM,73.4,73.4,100,30.33,0.5,Calm,Calm,-,N/A,Fog,Fog,0,2013-07-17 12:27:00
8:44 AM,75.2,75.2,100,30.33,1.0,Calm,Calm,-,N/A,,Mostly Cloudy,0,2013-07-17 12:44:00
8:47 AM,75.2,75.2,100,30.33,1.5,Calm,Calm,-,N/A,,Mostly Cloudy,0,2013-07-17 12:47:00
8:56 AM,75.9,75.9,100,30.35,5.0,Calm,Calm,-,N/A,,Scattered Clouds,0,2013-07-17 12:56:00
9:56 AM,83.8,75.9,77,30.34,10.0,Calm,Calm,-,N/A,,Clear,0,2013-07-17 13:56:00
10:56 AM,86.9,77.0,72,30.33,10.0,Calm,Calm,-,N/A,,Clear,0,2013-07-17 14:56:00
11:56 AM,86.0,77.0,74,30.32,10.0,West,3.5,-,N/A,,Scattered Clouds,260,2013-07-17 15:56:00
12:17 PM,82.4,77.0,84,30.30,2.5,Calm,Calm,-,0.03,Rain,Rain,0,2013-07-17 16:17:00
12:24 PM,80.6,77.0,89,30.30,5.0,Calm,Calm,-,0.04,Rain,Light Rain,0,2013-07-17 16:24:00
12:30 PM,80.6,78.8,94,30.31,1.8,NNE,6.9,-,0.14,Rain,Light Rain,20,2013-07-17 16:30:00
12:32 PM,80.6,77.0,89,30.31,0.5,North,8.1,-,0.23,Fog-Rain,Heavy Rain,360,2013-07-17 16:32:00
12:35 PM,78.8,75.2,89,30.31,0.2,Calm,Calm,-,0.42,Fog-Rain,Light Rain,0,2013-07-17 16:35:00
12:37 PM,78.8,75.2,89,30.30,0.2,SSE,6.9,-,0.47,Fog-Rain,Heavy Rain,160,2013-07-17 16:37:00
12:56 PM,77.9,74.8,90,30.32,10.0,Calm,Calm,-,0.48,Rain,Light Rain,0,2013-07-17 16:56:00
1:56 PM,77.9,75.9,94,30.32,6.0,Calm,Calm,-,0.00,,Partly Cloudy,0,2013-07-17 17:56:00
2:56 PM,77.9,74.8,90,30.30,10.0,Calm,Calm,-,N/A,,Partly Cloudy,0,2013-07-17 18:56:00
3:56 PM,84.9,77.9,79,30.28,10.0,Calm,Calm,-,N/A,,Partly Cloudy,0,2013-07-17 19:56:00
4:56 PM,86.9,75.9,70,30.25,10.0,Calm,Calm,-,0.00,,Partly Cloudy,0,2013-07-17 20:56:00
5:56 PM,88.9,79.0,72,30.22,10.0,Calm,Calm,-,N/A,,Clear,0,2013-07-17 21:56:00
6:56 PM,88.9,77.0,68,30.21,10.0,Calm,Calm,-,N/A,,Clear,0,2013-07-17 22:56:00
7:56 PM,86.9,74.8,67,30.21,10.0,NW,3.5,-,N/A,,Clear,320,2013-07-17 23:56:00
8:56 PM,82.9,72.9,71,30.22,10.0,Calm,Calm,-,N/A,,Clear,0,2013-07-18 00:56:00
9:56 PM,75.9,72.9,90,30.23,10.0,Calm,Calm,-,N/A,,Clear,0,2013-07-18 01:56:00
10:56 PM,73.9,72.9,96,30.25,8.0,Calm,Calm,-,N/A,,Clear,0,2013-07-18 02:56:00
11:56 PM,72.9,72.9,100,30.24,5.0,Calm,Calm,-,N/A,,Clear,0,2013-07-18 03:56:00